Tracking 19192 objects as of 19-Jun-2018
HD Live streaming from Space Station
objects crossing your sky now

USA 122

Track USA 122 now!
10-day predictions
USA 122 is classified as:


NORAD ID: 23862
Int'l Code: 1996-029D
Perigee: 636.7 km
Apogee: 1,589.8 km
Inclination: 63.4 °
Period: 107.4 minutes
Semi major axis: 7484 km
RCS: Unknown
Launch date: May 12, 1996
Source: United States (US)
Launch site: AIR FORCE WESTERN TEST RANGE (AFWTR)
aabbcc
Your satellite tracking list
Your tracking list is empty




NASA's NSSDC Master Catalog

Two Line Element Set (TLE):
1 23862U 96029D   18169.11241176 0.00000000  00000-0  00000-0 0    08
2 23862  63.3727 193.6439 0636727  15.6173 344.3827 13.40839614    00
Source of the keplerian elements: McCants